This demonstration page uses our WeatherBlox Daily Observations layout. Learn more.

Left ArrowRight Arrow

Hourly Observations for January 26, 2016

Temp ( °F °C ) Dew Point ( °F °C ) Humidity (%) Winds ( mph kmh ) Pressure ( in mb ) Visibility ( mi km ) Precip ( " mm )
12:53 am 00:53 Clear 44 6.7 27 -2.8 51 51 ENE 7 11 30.01 1016 10 16 0.00 0.00
1:53 am 01:53 Clear 43 6.1 28 -2.2 56 56 NE 7 11 30.02 1017 10 16 0.00 0.00
2:53 am 02:53 Mostly Clear 45 7.2 29 -1.7 54 54 ENE 18 30 30.04 1017 10 16 0.00 0.00
3:53 am 03:53 Mostly Cloudy 44 6.7 28 -2.2 53 53 ENE 18 30 30.06 1018 10 16 0.00 0.00
4:53 am 04:53 Mostly Cloudy 43 6.1 28 -2.2 56 56 ENE 14 22 30.08 1019 10 16 0.00 0.00
5:53 am 05:53 Cloudy 42 5.6 28 -2.2 58 58 ENE 18 30 30.11 1020 10 16 0.00 0.00
6:53 am 06:53 Cloudy 41 5 28 -2.2 60 60 ENE 16 26 30.16 1021 10 16 0.00 0.00
7:53 am 07:53 Cloudy 40 4.4 27 -2.8 60 60 ENE 10 17 30.19 1023 10 16 0.00 0.00
8:53 am 08:53 Cloudy 41 5 26 -3.3 55 55 ENE 10 17 30.23 1024 10 16 0.00 0.00
9:53 am 09:53 Cloudy 43 6.1 27 -2.8 53 53 ENE 5 7 30.27 1025 10 16 0.00 0.00
10:53 am 10:53 Cloudy 43 6.1 26 -3.3 51 51 ENE 9 15 30.30 1026 10 16 0.00 0.00
11:53 am 11:53 Cloudy 41 5 28 -2.2 60 60 E 10 17 30.31 1026 10 16 0.00 0.00
12:53 pm 12:53 Cloudy with Light Rain 40 4.4 31 -0.6 70 70 NE 8 13 30.30 1026 10 16 0.00 0.03
1:53 pm 13:53 Cloudy 39 3.9 32 0 76 76 E 8 13 30.30 1026 10 16 0.00 0.03
2:53 pm 14:53 Cloudy with Light Rain 38 3.3 33 0.6 83 83 NE 8 13 30.29 1026 5 8 0.00 0.03
3:04 pm 15:04 Cloudy with Light Rain 37 3 34 1 87 87 NNE 8 13 30.36 1028 6 10 0.00 0.00
3:22 pm 15:22 Cloudy with Light Rain 37 3 34 1 87 87 NE 7 11 30.36 1028 9 14 0.00 0.00
3:53 pm 15:53 Cloudy 39 3.9 35 1.7 86 86 NNE 8 13 30.28 1026 10 16 0.00 0.03
4:09 pm 16:09 Cloudy 40 4.4 35 1.7 83 83 N 8 13 30.36 1028 10 16 0.00 0.00
4:33 pm 16:33 Cloudy 39 3.9 34 1.1 82 82 NNE 13 20 30.36 1028 10 16 0.00 0.00
4:53 pm 16:53 Cloudy with Light Rain 39 3.9 33 0.6 79 79 N 8 13 30.29 1026 10 16 0.00 0.03
5:20 pm 17:20 Cloudy 39 4 34 1 81 81 N 9 15 30.36 1028 10 16 0.00 0.00
5:53 pm 17:53 Cloudy 40 4.4 32 0 73 73 NE 9 15 30.31 1026 10 16 0.00 0.03
6:53 pm 18:53 Cloudy 39 3.9 33 0.6 79 79 Calm 30.33 1027 10 16 0.00 0.00
7:53 pm 19:53 Cloudy 39 3.9 34 1.1 82 82 S 5 7 30.35 1028 10 16 0.00 0.00
8:53 pm 20:53 Cloudy 38 3.3 35 1.7 89 89 S 8 13 30.36 1028 10 16 0.00 0.00
9:09 pm 21:09 Cloudy 38 3.3 35 1.7 89 89 S 7 11 30.48 1032 10 16 0.00 0.00
9:44 pm 21:44 Cloudy 37 3 36 2 93 93 S 7 11 30.48 1032 10 16 0.00 0.00
9:53 pm 21:53 Cloudy 37 2.8 35 1.7 93 93 S 7 11 30.38 1029 10 16 0.00 0.00
10:53 pm 22:53 Cloudy 37 2.8 34 1.1 89 89 SSW 7 11 30.38 1029 10 16 0.00 0.00
11:05 pm 23:05 Cloudy 37 2.8 35 1.7 93 93 SSW 3 6 30.48 1032 10 16 0.00 0.00
11:13 pm 23:13 Cloudy 37 2.8 34 1.1 89 89 SW 5 7 30.48 1032 10 16 0.00 0.00
11:23 pm 23:23 Cloudy 37 2.8 33 0.6 86 86 SW 5 7 30.48 1032 10 16 0.00 0.00
11:53 pm 23:53 Cloudy 36 2.2 33 0.6 89 89 Calm 30.37 1029 10 16 0.00 0.00

Powered by AerisWeather